Shelby, NC

8:14 PM EDT on September 20, 2017 (GMT -0400)
Shelby Municipal

Weather History for KEHO - March, 2013

Change the Weather History Date:

Saturday, March 16, 2013

  Actual Average (KHKY) Record (KHKY)
Temperature  
Mean Temperature 66 °F -  
Max Temperature 76 °F 57 °F 84 °F (2016)
Min Temperature 55 °F 37 °F 20 °F (1949)
Growing Degree Days 16 (Base 50)    
Moisture  
Dew Point 41 °F    
Average Humidity 43    
Maximum Humidity 60    
Minimum Humidity 29    
Precipitation  
Precipitation 0.00 in - - ()
Sea Level Pressure  
Sea Level Pressure 29.84 in    
Wind  
Wind Speed 11 mph (SW)    
Max Wind Speed 24 mph    
Max Gust Speed 33 mph    
Visibility 10 miles    
Events      
Averages and records for this station are not official NWS values.
T = Trace of Precipitation, MM = Missing Value Source: NWS Daily Summary

Daily Weather History Graph

Daily Weather History Graph

Search for Another Location

Airport or City:

Trip Planner

Search our weather history database for the weather conditions in past years. The results will help you decide how hot, cold, wet, or windy it might be!

Date:

Astronomy

Mar. 16, 2013 Rise Set
Actual Time 7:35 AM EDT 7:35 PM EDT
Civil Twilight 7:10 AM EDT 8:00 PM EDT
Nautical Twilight 6:40 AM EDT 8:29 PM EDT
Astronomical Twilight 6:10 AM EDT 8:59 PM EDT
Moon 10:15 AM EDT (3/16) No Moon Set
Length of Visible Light 12h 50m
Length of Day
11h 59m
Waxing Crescent, 23% of the Moon is Illuminated
Mar 16
Waxing Crescent
Mar 19
First Quarter
Mar 27
Full
Apr 3
Last Quarter
Apr 10
New

Hourly Weather History & Observations

Time (EDT) Temp. Dew Point Humidity Pressure Visibility Wind Dir Wind Speed Gust Speed Precip Events Conditions
12:15 AM 60.1 °F 39.4 °F 46% 29.91 in 10.0 mi SSW 8.1 mph - N/A   Scattered Clouds
12:35 AM 59.4 °F 40.1 °F 49% 29.91 in 10.0 mi SSW 6.9 mph - N/A   Mostly Cloudy
12:55 AM 59.2 °F 40.1 °F 49% 29.90 in 10.0 mi SSW 8.1 mph - N/A   Mostly Cloudy
1:15 AM 59.2 °F 40.1 °F 49% 29.89 in 10.0 mi SSW 6.9 mph - N/A   Scattered Clouds
1:55 AM 58.3 °F 40.3 °F 51% 29.88 in 10.0 mi SSW 9.2 mph - N/A   Clear
2:15 AM 57.9 °F 40.3 °F 52% 29.88 in 10.0 mi SSW 8.1 mph - N/A   Clear
2:35 AM 57.7 °F 40.5 °F 53% 29.88 in 10.0 mi SSW 8.1 mph - N/A   Clear
2:55 AM 57.2 °F 40.3 °F 53% 29.88 in 10.0 mi SSW 8.1 mph - N/A   Clear
3:15 AM 56.7 °F 40.5 °F 55% 29.88 in 10.0 mi SW 9.2 mph - N/A   Clear
3:35 AM 55.6 °F 40.8 °F 58% 29.87 in 10.0 mi SW 9.2 mph - N/A   Clear
3:55 AM 55.4 °F 41.0 °F 58% 29.87 in 10.0 mi SW 9.2 mph - N/A   Clear
4:15 AM 55.0 °F 41.2 °F 60% 29.87 in 10.0 mi SW 8.1 mph - N/A   Clear
4:35 AM 55.2 °F 41.7 °F 60% 29.87 in 10.0 mi SW 9.2 mph - N/A   Clear
4:55 AM 57.2 °F 41.5 °F 56% 29.86 in 10.0 mi SW 10.4 mph - N/A   Clear
5:15 AM 57.4 °F 41.7 °F 56% 29.87 in 10.0 mi SW 10.4 mph - N/A   Clear
5:35 AM 57.4 °F 41.7 °F 56% 29.86 in 10.0 mi SSW 8.1 mph - N/A   Clear
5:55 AM 58.1 °F 41.5 °F 54% 29.87 in 10.0 mi SSW 8.1 mph - N/A   Clear
6:15 AM 58.1 °F 41.7 °F 54% 29.87 in 10.0 mi SW 9.2 mph - N/A   Clear
6:35 AM 57.9 °F 41.9 °F 55% 29.87 in 10.0 mi SW 9.2 mph - N/A   Clear
6:55 AM 57.4 °F 41.9 °F 56% 29.88 in 10.0 mi SW 8.1 mph - N/A   Clear
7:15 AM 58.1 °F 41.7 °F 54% 29.88 in 10.0 mi SSW 10.4 mph - N/A   Clear
7:35 AM 58.1 °F 41.5 °F 54% 29.88 in 10.0 mi SSW 10.4 mph - N/A   Clear
7:55 AM 58.3 °F 41.5 °F 54% 29.88 in 10.0 mi SSW 6.9 mph - N/A   Clear
8:15 AM 57.9 °F 41.5 °F 54% 29.88 in 10.0 mi SSW 8.1 mph - N/A   Clear
8:35 AM 57.6 °F 41.9 °F 56% 29.89 in 10.0 mi SSW 9.2 mph - N/A   Clear
8:55 AM 58.1 °F 41.9 °F 55% 29.88 in 10.0 mi SSW 11.5 mph 17.3 mph N/A   Clear
9:15 AM 59.5 °F 42.4 °F 53% 29.89 in 10.0 mi SW 12.7 mph - N/A   Clear
9:35 AM 60.3 °F 42.1 °F 51% 29.88 in 10.0 mi SW 15.0 mph 19.6 mph N/A   Clear
9:55 AM 61.9 °F 42.4 °F 49% 29.88 in 10.0 mi SW 15.0 mph - N/A   Clear
10:15 AM 62.1 °F 41.9 °F 48% 29.88 in 10.0 mi SW 16.1 mph - N/A   Clear
10:35 AM 63.5 °F 42.1 °F 46% 29.87 in 10.0 mi SW 16.1 mph 21.9 mph N/A   Clear
10:55 AM 63.7 °F 41.9 °F 45% 29.87 in 10.0 mi SW 12.7 mph - N/A   Clear
11:15 AM 65.3 °F 42.1 °F 43% 29.87 in 10.0 mi SSW 12.7 mph - N/A   Clear
11:35 AM 67.3 °F 41.7 °F 39% 29.87 in 10.0 mi SW 16.1 mph - N/A   Clear
11:55 AM 68.0 °F 41.7 °F 38% 29.85 in 10.0 mi SW 15.0 mph 21.9 mph N/A   Clear
12:15 PM 69.6 °F 41.9 °F 37% 29.84 in 10.0 mi SSW 17.3 mph 25.3 mph N/A   Clear
12:35 PM 70.7 °F 42.1 °F 35% 29.84 in 10.0 mi SW 13.8 mph 19.6 mph N/A   Clear
1:15 PM 72.7 °F 41.9 °F 33% 29.82 in 10.0 mi SSW 16.1 mph 26.5 mph N/A   Clear
1:35 PM 74.3 °F 42.8 °F 32% 29.81 in 10.0 mi WSW 17.3 mph 21.9 mph N/A   Clear
1:55 PM 74.7 °F 42.8 °F 32% 29.80 in 10.0 mi SW 17.3 mph 23.0 mph N/A   Clear
2:15 PM 75.7 °F 43.5 °F 32% 29.80 in 10.0 mi SW 17.3 mph 23.0 mph N/A   Clear
2:35 PM 76.1 °F 42.8 °F 30% 29.78 in 10.0 mi SW 15.0 mph 27.6 mph N/A   Clear
2:55 PM 76.1 °F 42.8 °F 30% 29.78 in 10.0 mi SW 20.7 mph 28.8 mph N/A   Clear
3:15 PM 74.8 °F 43.3 °F 32% 29.77 in 10.0 mi SSW 12.7 mph 25.3 mph N/A   Clear
3:35 PM 74.3 °F 43.2 °F 33% 29.77 in 10.0 mi SW 20.7 mph 27.6 mph N/A   Clear
3:55 PM 76.1 °F 43.3 °F 31% 29.75 in 10.0 mi SW 12.7 mph 27.6 mph N/A   Clear
4:15 PM 76.8 °F 43.3 °F 30% 29.75 in 10.0 mi SSW 16.1 mph 27.6 mph N/A   Clear
4:35 PM 76.1 °F 43.5 °F 31% 29.75 in 10.0 mi SSW 20.7 mph 29.9 mph N/A   Clear
4:55 PM 76.6 °F 43.3 °F 30% 29.75 in 10.0 mi SW 21.9 mph 33.4 mph N/A   Clear
5:15 PM 76.1 °F 42.1 °F 30% 29.75 in 10.0 mi SW 24.2 mph 31.1 mph N/A   Clear
5:35 PM 76.1 °F 41.7 °F 29% 29.75 in 10.0 mi SW 15.0 mph 26.5 mph N/A   Clear
5:55 PM 76.1 °F 41.2 °F 29% 29.75 in 10.0 mi SSW 20.7 mph 26.5 mph N/A   Clear
6:15 PM 76.1 °F 42.1 °F 30% 29.75 in 10.0 mi SSW 12.7 mph 27.6 mph N/A   Clear
6:35 PM 74.8 °F 41.2 °F 30% 29.75 in 10.0 mi SSW 16.1 mph 27.6 mph N/A   Clear
6:55 PM 74.3 °F 41.4 °F 31% 29.75 in 10.0 mi SW 17.3 mph 29.9 mph N/A   Clear
7:15 PM 73.4 °F 41.0 °F 31% 29.76 in 10.0 mi SW 12.7 mph 21.9 mph N/A   Clear
7:35 PM 72.5 °F 40.8 °F 32% 29.77 in 10.0 mi SW 16.1 mph 26.5 mph N/A   Clear
7:55 PM 71.8 °F 41.4 °F 33% 29.78 in 10.0 mi SW 12.7 mph 19.6 mph N/A   Clear
8:15 PM 71.2 °F 41.0 °F 33% 29.80 in 10.0 mi SW 12.7 mph 18.4 mph N/A   Clear
8:35 PM 71.1 °F 40.6 °F 33% 29.81 in 10.0 mi SW 16.1 mph 21.9 mph N/A   Clear
8:55 PM 70.7 °F 40.3 °F 33% 29.82 in 10.0 mi SW 13.8 mph 21.9 mph N/A   Clear
9:35 PM 69.8 °F 39.9 °F 34% 29.84 in 10.0 mi SW 12.7 mph - N/A   Scattered Clouds
9:55 PM 68.9 °F 39.9 °F 35% 29.85 in 10.0 mi WSW 10.4 mph - N/A   Scattered Clouds
10:35 PM 68.0 °F 40.1 °F 36% 29.86 in 10.0 mi WSW 9.2 mph - N/A   Scattered Clouds
10:55 PM 67.8 °F 39.7 °F 36% 29.87 in 10.0 mi WSW 8.1 mph - N/A   Clear
11:15 PM 67.1 °F 39.7 °F 37% 29.87 in 10.0 mi WSW 8.1 mph - N/A   Clear
11:35 PM 66.6 °F 39.7 °F 37% 29.87 in 10.0 mi WSW 8.1 mph - N/A   Clear
11:55 PM 65.7 °F 39.7 °F 39% 29.87 in 10.0 mi WSW 8.1 mph - N/A   Clear